Location: Orange
(33.2833°S, 149.1000°E)
Time: 16:01:02
(UTC+11:00)

ISS - Visible Passes

Search period start: 15 December 2019 00:00
Search period end: 25 December 2019 00:00
Orbit: 411 x 421 km, 51.6° (Epoch: 15 December)

Date Brightness Start Highest point End Pass type
(mag) Time Alt. Az. Time Alt. Az. Time Alt. Az.
15 Dec -1.7 05:09:43 10° SSW 05:12:52 34° SE 05:15:59 10° ENE visible
15 Dec -3.5 21:48:53 10° NW 21:52:17 71° SW 21:55:43 10° SE visible
15 Dec 0.0 23:28:55 10° SW 23:29:33 10° SSW 23:30:12 10° SSW visible
16 Dec -0.8 04:21:37 10° SSW 04:24:17 21° SE 04:26:54 10° E visible
16 Dec -3.7 21:00:29 10° NNW 21:03:49 56° NE 21:07:12 10° SE visible
16 Dec -0.5 22:38:41 10° WSW 22:40:49 15° SSW 22:42:57 10° S visible
17 Dec -0.3 03:33:47 10° S 03:35:34 14° SSE 03:37:22 10° ESE visible
17 Dec -3.8 05:09:16 10° SW 05:12:40 70° NW 05:16:00 10° NE visible
17 Dec -1.1 21:49:18 10° W 21:52:09 24° SW 21:55:00 10° SSE visible
18 Dec -3.1 04:20:48 10° SW 04:24:10 58° SE 04:27:30 10° ENE visible
18 Dec -2.2 21:00:17 10° WNW 21:03:31 40° SW 21:06:49 10° SSE visible
19 Dec -1.8 03:32:30 10° SSW 03:35:36 31° SE 03:38:39 10° ENE visible
19 Dec -2.4 05:09:39 10° W 05:12:10 19° NW 05:14:39 10° N visible
19 Dec -0.1 21:51:11 10° SW 21:52:12 11° SSW 21:53:15 10° S visible
20 Dec -1.0 02:44:22 10° SSW 02:46:56 19° SSE 02:49:29 10° E visible
20 Dec -3.3 04:20:36 10° WSW 04:23:46 37° NW 04:26:54 10° NNE visible
20 Dec -0.5 21:01:10 10° WSW 21:03:26 16° SSW 21:05:43 10° S visible
21 Dec -0.3 01:56:34 10° S 01:57:29 12° SSE 01:57:29 12° SSE visible
